STARLINK-11575, 63308

Orbit data source: Space-Track

STARLINK-11575, 63308 is a payload satellite in LEO that was launched on Tue, 18 Mar 2025 UTC via an FALCON 9 launch vehicle from the Air Force Eastern Test Range (AFETR). Payload-class satellites include a variety of spacecraft equipped with specific instruments for various scientific and technological missions. These include communications satellites like Starlink; space stations such as the ISS; scientific satellites like the Hubble; Earth observation satellites from companies like Planet Labs, Umbra, and HawkEye 360; GPS; miniature CubeSats for education and research; and military/defense satellites.

Loading next visibility...
Identifier
63308, 2025-057B
Orbit
LEO
Last TLE update
17 hours ago
Origin
Manufacturer
SpaceX/Seattle
Mission
Operational Commercial Communications
Bus & Motor
STARLINK V2M, Unknown motor
Mass
730 kg wet, ~700 kg dry
Launch date (UTC)
2025-03-18 (2 months ago)
Launch vehicle
FALCON 9
Launch site
Air Force Eastern Test Range (AFETR)
Object type
Payload
Rocket body
Debris
Shape & HBR
Box + 2 Pan, 29 m
Radar Cross Section
36.964 m², Large (>1 m²)

Expand to show TLE details & history

TLE from 17 hours ago
0 STARLINK-11575
1 63308U 25057B   25139.97708074  .00000966  00000-0  11023-4 0  9993
2 63308  43.0013 234.9911 0001188 259.2711 100.8022 15.70823389  9825
Epoch: 2025-05-19T23:26Z
TLE epoch observation values (Epoch: 2025-05-19T23:26:59.775Z)
Latitude
-0.0001°
Longitude
5.35997°
Altitude
356.464 km
Speed
7.697 km/s
True Right ascension
15h 39m 57s
True Declination
0° 00' 00"
Sunlit
Object was in full shadow at epoch
Visualization orbit readout
Latitude
18.93954°
Longitude
22.57505°
Altitude
356.241 km
Speed
7.699 km/s
Apparent Right ascension
15h 17m 02s
Apparent Declination
-10° 39' 16"
Sunlit
Object is in full shadow
Visualization observer readout
Local Sidereal Time
01:15:10
Azimuth
308.873° NW
Elevation
-50.202°
Doppler factor
1
Orbital elements
Apogee altitude
359.324 km
Perigee altitude
357.724 km
Semi-major axis
6,736.661 km
Eccentricity
0.00012
Inclination
43.0013°
RAAN
234.9911°
Arg. of periapsis
259.2711°
True anomaly
Unknown
Mean anomaly
100.8022°
Eccentric anomaly
Unknown
Mean motion
3.92533 °/min
Orbital period
91.71 mins
BSTAR
0.000011023
Loading maneuver chart data...
Loading SW <> Apogee altitude chart data...
Loading historical data...
Loading historical data...
Loading historical data...
Loading historical data...
Loading historical data...
Loading historical data...
Loading historical data...

STARLINK-11575 Visibility forecast

Observer location: undefined°, undefined°

Span
Click to sort rows by Start time (UTC) header in descending order
Start Az.
Max El. time (UTC)
Max El. Az.
Max El.
End time (UTC)
End Az.
4 mins2025-05-21 09:14:20.344Z203.396° SW2025-05-21 09:16:20.344Z140.685° SSE25.692°2025-05-21 09:18:20.344Z91.596° ESE
4 mins2025-05-21 10:50:20.344Z269.507° W2025-05-21 10:52:20.344Z17.844° NNE40.59°2025-05-21 10:54:20.344Z66.689° ENE
4 mins2025-05-21 14:03:20.344Z280.17° WNW2025-05-21 14:04:20.344Z251.635° W41.982°2025-05-21 14:07:20.344Z116.69° SE
|